| time (UTC) | temp F | wind direction | speed knots | gust knots | rain 1hr in | rain 24hr in | rain mn in | humidity % | barometer mb |
| 20260507221405 | 53 | 34 | 2.6 | 4.3 | 0.00 | 0.00 | 0.00 | 71 | 1014.1 |
| 20260507220906 | 53 | 35 | 2.6 | 5.2 | 0.00 | 0.00 | 0.00 | 72 | 1014.2 |
| 20260507220405 | 53 | 34 | 2.6 | 6.1 | 0.00 | 0.00 | 0.00 | 72 | 1014.2 |
| 20260507214907 | 54 | 36 | 4.3 | 5.2 | 0.00 | 0.00 | 0.00 | 71 | 1014.1 |
| 20260507214410 | 54 | 28 | 3.5 | 5.2 | 0.00 | 0.00 | 0.00 | 71 | 1014.1 |
| 20260507213905 | 54 | 23 | 2.6 | 5.2 | 0.00 | 0.00 | 0.00 | 71 | 1014.1 |
| 20260507213405 | 54 | 24 | 1.7 | 7.8 | 0.00 | 0.00 | 0.00 | 70 | 1014.1 |
| 20260507211908 | 55 | 28 | 5.2 | 8.7 | 0.00 | 0.00 | 0.00 | 68 | 1014.1 |
| 20260507204405 | 55 | 36 | 2.6 | 4.3 | 0.00 | 0.00 | 0.00 | 71 | 1014.0 |
| 20260507203905 | 55 | 36 | 1.7 | 4.3 | 0.00 | 0.00 | 0.00 | 71 | 1014.0 |
| 20260507203407 | 55 | 36 | 1.7 | 4.3 | 0.00 | 0.00 | 0.00 | 70 | 1014.0 |
| 20260507201405 | 56 | 36 | 2.6 | 4.3 | 0.00 | 0.00 | 0.00 | 69 | 1014.0 |
| 20260507200405 | 56 | 36 | 2.6 | 7.0 | 0.00 | 0.00 | 0.00 | 69 | 1014.1 |
| 20260507194905 | 56 | 37 | 2.6 | 4.3 | 0.00 | 0.00 | 0.00 | 69 | 1014.2 |
| 20260507194405 | 56 | 37 | 1.7 | 5.2 | 0.00 | 0.00 | 0.00 | 69 | 1014.1 |
| 20260507193907 | 57 | 36 | 4.3 | 6.1 | 0.00 | 0.00 | 0.00 | 68 | 1014.1 |
| 20260507193406 | 57 | 36 | 2.6 | 7.0 | 0.00 | 0.00 | 0.00 | 68 | 1014.1 |
| 20260507190906 | 58 | 25 | 1.7 | 6.1 | 0.00 | 0.00 | 0.00 | 71 | 1014.0 |
| 20260507190406 | 58 | 26 | 4.3 | 7.8 | 0.00 | 0.00 | 0.00 | 71 | 1013.9 |
| 20260507184406 | 59 | 27 | 4.3 | 7.0 | 0.00 | 0.00 | 0.00 | 75 | 1013.6 |
| 20260507181906 | 60 | 35 | 4.3 | 7.0 | 0.00 | 0.00 | 0.00 | 74 | 1013.7 |
| 20260507181407 | 60 | 21 | 4.3 | 8.7 | 0.00 | 0.00 | 0.00 | 74 | 1013.7 |
| 20260507180406 | 61 | 43 | 5.2 | 8.7 | 0.00 | 0.00 | 0.00 | 72 | 1013.6 |
| 20260507173906 | 66 | 46 | 4.3 | 7.0 | 0.00 | 0.00 | 0.00 | 62 | 1013.3 |
| 20260507171907 | 68 | 264 | 0.0 | 2.6 | 0.00 | 0.00 | 0.00 | 55 | 1013.1 |
| 20260507171407 | 68 | 265 | 1.7 | 2.6 | 0.00 | 0.00 | 0.00 | 54 | 1013.2 |
| 20260507170907 | 68 | 260 | 0.9 | 2.6 | 0.00 | 0.00 | 0.00 | 55 | 1013.2 |
| 20260507170406 | 68 | 252 | 3.5 | 7.8 | 0.00 | 0.00 | 0.00 | 54 | 1013.3 |
| 20260507163406 | 69 | 244 | 4.3 | 7.0 | 0.00 | 0.00 | 0.00 | 56 | 1013.3 |
| 20260507154907 | 69 | 204 | 4.3 | 8.7 | 0.00 | 0.00 | 0.00 | 55 | 1013.2 |
| 20260507154409 | 70 | 249 | 7.0 | 10.4 | 0.00 | 0.00 | 0.00 | 52 | 1013.1 |
| 20260507153907 | 70 | 229 | 4.3 | 10.4 | 0.00 | 0.00 | 0.00 | 54 | 1013.0 |
| 20260507151907 | 70 | 253 | 4.3 | 8.7 | 0.00 | 0.00 | 0.00 | 52 | 1013.2 |
| 20260507150406 | 70 | 191 | 6.1 | 10.4 | 0.00 | 0.01 | 0.00 | 52 | 1013.2 |
| 20260507144907 | 71 | 238 | 5.2 | 7.8 | 0.00 | 0.01 | 0.00 | 53 | 1013.4 |
| 20260507141907 | 69 | 230 | 5.2 | 8.7 | 0.00 | 0.02 | 0.00 | 55 | 1013.6 |
| 20260507140911 | 69 | 211 | 4.3 | 13.0 | 0.00 | 0.02 | 0.00 | 56 | 1013.6 |
| 20260507140407 | 69 | 251 | 8.7 | 12.2 | 0.00 | 0.02 | 0.00 | 54 | 1013.5 |
| 20260507134906 | 69 | 200 | 5.2 | 10.4 | 0.00 | 0.02 | 0.00 | 54 | 1013.7 |
| 20260507133906 | 70 | 243 | 5.2 | 11.3 | 0.00 | 0.03 | 0.00 | 54 | 1013.7 |
| 20260507131906 | 69 | 168 | 7.8 | 12.2 | 0.00 | 0.03 | 0.00 | 56 | 1013.9 |
| 20260507124907 | 69 | 238 | 6.1 | 10.4 | 0.00 | 0.06 | 0.00 | 58 | 1013.9 |
| 20260507123906 | 68 | 239 | 5.2 | 11.3 | 0.00 | 0.06 | 0.00 | 60 | 1013.9 |
| 20260507121406 | 68 | 173 | 8.7 | 13.0 | 0.00 | 0.08 | 0.00 | 60 | 1014.0 |
| 20260507120907 | 68 | 222 | 4.3 | 8.7 | 0.00 | 0.08 | 0.00 | 63 | 1014.0 |
| 20260507114407 | 67 | 200 | 4.3 | 7.8 | 0.00 | 0.08 | 0.00 | 64 | 1014.2 |
| 20260507113406 | 66 | 199 | 4.3 | 8.7 | 0.00 | 0.08 | 0.00 | 65 | 1014.3 |
| 20260507111407 | 67 | 189 | 3.5 | 6.1 | 0.00 | 0.08 | 0.00 | 66 | 1014.4 |
| 20260507110907 | 67 | 245 | 1.7 | 2.6 | 0.00 | 0.08 | 0.00 | 66 | 1014.5 |
| 20260507104906 | 66 | 188 | 1.7 | 5.2 | 0.00 | 0.08 | 0.00 | 66 | 1014.7 |
| 20260507103406 | 66 | 68 | 0.9 | 10.4 | 0.00 | 0.08 | 0.00 | 67 | 1014.8 |
| 20260507100406 | 67 | 185 | 1.7 | 7.8 | 0.00 | 0.08 | 0.00 | 67 | 1015.0 |
| 20260507094906 | 66 | 134 | 3.5 | 6.1 | 0.00 | 0.08 | 0.00 | 68 | 1015.0 |
| 20260507093906 | 66 | 147 | 4.3 | 6.1 | 0.00 | 0.08 | 0.00 | 70 | 1015.0 |
| 20260507091906 | 66 | 176 | 1.7 | 2.6 | 0.00 | 0.08 | 0.00 | 72 | 1015.2 |
| 20260507084907 | 63 | 225 | 0.9 | 2.6 | 0.00 | 0.08 | 0.00 | 74 | 1015.4 |
| 20260507083906 | 62 | 197 | 0.9 | 2.6 | 0.00 | 0.08 | 0.00 | 77 | 1015.4 |
| 20260507081908 | 61 | 198 | 1.7 | 2.6 | 0.00 | 0.08 | 0.00 | 80 | 1015.3 |
| 20260507080906 | 60 | 75 | 1.7 | 2.6 | 0.00 | 0.08 | 0.00 | 80 | 1015.3 |
| 20260507080406 | 60 | 127 | 0.9 | 2.6 | 0.00 | 0.08 | 0.00 | 81 | 1015.4 |
| 20260507073406 | 60 | 223 | 1.7 | 2.6 | 0.00 | 0.09 | 0.00 | 82 | 1015.2 |
| 20260507071906 | 59 | 253 | 1.7 | 2.6 | 0.00 | 0.09 | 0.00 | 82 | 1015.2 |
| 20260507071406 | 58 | 172 | 0.9 | 2.6 | 0.00 | 0.09 | 0.00 | 81 | 1015.2 |
| 20260507070906 | 57 | 213 | 1.7 | 4.3 | 0.00 | 0.09 | 0.00 | 81 | 1015.1 |
| 20260507064906 | 57 | 232 | 1.7 | 2.6 | 0.00 | 0.21 | 0.00 | 79 | 1015.0 |
| 20260507063406 | 56 | 238 | 0.9 | 4.3 | 0.00 | 0.29 | 0.00 | 79 | 1014.9 |
| 20260507061906 | 55 | 33 | 0.0 | 0.9 | 0.00 | 0.32 | 0.00 | 76 | 1014.8 |
| 20260507060905 | 54 | 33 | 0.9 | 1.7 | 0.00 | 0.34 | 0.00 | 73 | 1014.7 |
| 20260507060406 | 54 | 33 | 0.9 | 5.2 | 0.00 | 0.35 | 0.00 | 69 | 1014.7 |
| 20260507054906 | 54 | 33 | 0.0 | 0.0 | 0.00 | 0.46 | 0.00 | 64 | 1014.6 |
| 20260507054407 | 54 | 33 | 0.0 | 0.9 | 0.00 | 0.46 | 0.00 | 62 | 1014.5 |
| 20260507051406 | 53 | 33 | 0.0 | 0.9 | 0.00 | 0.52 | 0.00 | 61 | 1014.4 |
| 20260507050905 | 53 | 33 | 0.0 | 0.9 | 0.00 | 0.52 | 0.00 | 61 | 1014.3 |
| 20260507050406 | 52 | 33 | 0.0 | 1.7 | 0.00 | 0.52 | 0.00 | 60 | 1014.2 |
| 20260507044406 | 52 | 33 | 0.9 | 1.7 | 0.00 | 0.53 | 0.00 | 62 | 1014.0 |
| 20260507040406 | 51 | 33 | 1.7 | 5.2 | 0.00 | 0.55 | 0.00 | 58 | 1013.9 |
| 20260507034406 | 51 | 37 | 0.0 | 1.7 | 0.00 | 0.55 | 0.00 | 58 | 1013.9 |
| 20260507033905 | 51 | 37 | 0.9 | 1.7 | 0.00 | 0.56 | 0.00 | 59 | 1013.8 |
| 20260507033406 | 51 | 37 | 1.7 | 2.6 | 0.00 | 0.56 | 0.00 | 58 | 1013.7 |
| 20260507031406 | 52 | 37 | 1.7 | 4.3 | 0.00 | 0.67 | 0.00 | 59 | 1013.5 |
| 20260507030906 | 52 | 310 | 1.7 | 2.6 | 0.00 | 0.69 | 0.00 | 59 | 1013.6 |
| 20260507023905 | 54 | 252 | 0.0 | 0.0 | 0.00 | 0.88 | 0.00 | 61 | 1013.6 |
| 20260507021905 | 55 | 252 | 0.9 | 1.7 | 0.00 | 0.88 | 0.00 | 62 | 1013.8 |
| 20260507021405 | 55 | 252 | 0.0 | 0.9 | 0.00 | 0.88 | 0.00 | 63 | 1013.8 |
| 20260507020906 | 55 | 252 | 0.0 | 0.0 | 0.00 | 0.89 | 0.00 | 63 | 1013.8 |
| 20260507020405 | 55 | 252 | 0.0 | 0.9 | 0.00 | 0.90 | 0.00 | 63 | 1013.8 |
| 20260507014406 | 55 | 252 | 0.0 | 0.0 | 0.00 | 1.08 | 0.00 | 64 | 1013.8 |
| 20260507013906 | 54 | 252 | 0.0 | 0.0 | 0.00 | 1.13 | 0.00 | 64 | 1013.8 |
| 20260507011906 | 55 | 252 | 0.9 | 1.7 | 0.00 | 1.21 | 0.00 | 63 | 1013.9 |
| 20260507003405 | 55 | 252 | 0.9 | 2.6 | 0.00 | 1.27 | 0.00 | 67 | 1013.8 |
| 20260507001406 | 55 | 82 | 1.7 | 2.6 | 0.00 | 1.34 | 0.00 | 73 | 1013.8 |
| 20260507000905 | 55 | 82 | 0.9 | 1.7 | 0.00 | 1.51 | 0.00 | 74 | 1013.8 |
| 20260507000406 | 55 | 82 | 0.9 | 6.1 | 0.00 | 1.77 | 0.00 | 74 | 1013.8 |
| 20260506233906 | 56 | 29 | 0.0 | 1.7 | 0.00 | 2.34 | 0.00 | 79 | 1013.9 |
| 20260506231906 | 56 | 255 | 1.7 | 8.7 | 0.00 | 2.46 | 0.00 | 80 | 1013.7 |
| 20260506231406 | 56 | 77 | 7.8 | 10.4 | 0.00 | 2.47 | 0.00 | 80 | 1013.8 |
| 20260506230405 | 56 | 87 | 4.3 | 13.9 | 0.00 | 2.48 | 0.00 | 78 | 1013.8 |
| 20260506224406 | 57 | 64 | 0.0 | 0.9 | 0.00 | 2.48 | 0.00 | 77 | 1013.7 |
| 20260506223905 | 57 | 64 | 0.9 | 2.6 | 0.00 | 2.48 | 0.00 | 77 | 1013.7 |
| 20260506223405 | 57 | 62 | 2.6 | 6.1 | 0.00 | 2.48 | 0.00 | 78 | 1013.7 |
| 20260506221906 | 57 | 58 | 1.7 | 7.0 | 0.00 | 2.48 | 0.00 | 77 | 1013.6 |